Temp
67 67 67 66 66 66 66 65 65 65 65 65 65 66 66 68 69 68 69 69 70 69 69 69 69 69 70 69 69 69 69 69 70 68 67 68 66 66 67 68 69 68
66 67 68 67 66 66 66 66 65 65 65 65 66 66 67 68 68 69 69 69 69 69 69 69 69 69 69 68 68 67 67 68 68 70 67 67 66 67 67 68 68 68
65 65 66 65 65 65 66 66 66 66 65 66 67 67 67 69 69 69 69 69 69 69 69 69 69 69 69 69 68 68 68 68 68 69 69 68 67 67 67 67 67 68
63 64 65 65 65 65 65 65 65 65 65 65 66 67 68 69 68 68 68 70 69 69 69 69 69 69 69 69 69 68 69 68 69 69 68 69 69 68 68 67 67 67
63 64 64 65 65 65 65 64 64 65 65 65 66 66 67 67 66 67 67 67 67 67 68 68 68 68 68 69 69 68 69 68 69 69 68 68 68 68 68 67 66 66
62 63 64 64 64 64 64 64 64 64 65 65 65 66 66 66 66 66 67 66 67 67 67 67 67 67 67 68 68 68 68 68 68 68 68 68 68 67 67 66 66 66
62 62 63 63 63 63 64 63 64 65 64 65 65 65 66 65 65 65 66 67 67 68 68 68 68 68 69 69 68 68 68 68 68 68 68 67 68 67 67 67 67 67
62 62 62 62 62 62 63 63 63 63 64 65 64 65 65 65 65 65 66 67 67 67 67 66 67 68 69 68 68 68 68 69 69 68 68 68 68 68 68 68 68 67
61 62 62 62 61 61 62 62 63 63 64 64 64 65 65 65 65 65 66 66 66 66 66 66 66 66 67 67 67 67 67 68 68 68 68 67 67 68 68 68 67 67
61 61 61 62 61 62 62 62 63 63 64 64 65 65 65 65 66 66 66 66 65 66 66 66 66 66 66 67 67 67 67 67 68 68 68 68 68 68 68 68 67 66
61 61 61 62 62 62 62 63 63 63 64 65 65 65 66 66 66 67 66 66 66 66 66 66 66 66 66 66 67 67 67 67 67 67 67 67 67 68 67 67 67 66
61 61 61 62 63 63 63 63 63 63 63 64 65 65 66 66 66 66 66 66 66 66 66 66 66 66 66 66 66 67 67 67 67 67 67 67 67 67 67 68 67 67
61 61 61 62 62 62 63 63 63 63 64 64 65 66 66 66 67 67 67 67 67 66 66 66 66 66 66 66 65 66 66 66 66 66 66 67 67 67 68 68 68 68
61 61 61 62 62 63 63 62 63 63 63 64 65 65 65 66 66 67 67 67 66 66 66 66 65 65 65 66 66 65 65 66 66 66 66 66 66 67 68 68 68 69
61 62 62 62 63 62 62 62 62 62 63 63 64 64 66 66 66 67 66 66 66 66 66 65 65 65 65 64 62 63 64 64 65 65 65 65 66 67 67 67 68 68
61 62 62 62 62 62 62 61 61 62 63 63 64 64 65 66 66 66 66 66 65 65 65 65 65 66 63 58 60 62 62 63 63 63 64 65 66 66 67 67 68 68
61 62 61 62 62 61 61 62 62 62 62 63 63 64 64 65 65 65 66 65 65 64 64 65 65 65 60 60 61 62 63 62 62 63 64 64 65 65 65 66 67 68
61 61 61 62 61 62 62 62 62 62 62 62 63 63 64 65 64 65 65 65 65 64 64 65 65 62 60 60 61 61 62 61 61 61 63 63 64 65 66 66 66 67
60 60 61 61 61 62 62 62 61 62 62 62 63 64 64 64 64 64 64 64 64 64 64 65 65 62 60 58 59 60 61 62 61 61 62 63 64 65 65 66 67 67
60 59 60 61 61 61 61 61 61 62 62 62 63 63 63 63 63 63 63 64 64 64 63 64 64 61 58 57 57 57 60 62 63 63 64 65 66 66 66 66 66 66
59 59 59 60 61 61 61 62 62 62 62 62 62 62 62 62 62 62 63 64 64 64 64 64 65 60 57 56 55 56 58 62 65 65 65 66 66 66 66 66 66 67
59 58 59 60 61 61 61 62 62 62 62 62 62 62 62 62 63 63 63 63 64 64 63 63 64 60 56 55 55 56 58 63 64 64 65 65 65 65 66 66 66 66
59 58 59 60 61 61 61 61 62 62 62 61 61 61 61 62 62 62 63 63 63 64 63 63 63 61 56 53 54 56 58 63 63 62 62 62 61 61 61 64 66 66
59 59 59 60 60 60 61 62 62 62 61 61 60 60 60 62 62 62 62 62 63 63 64 63 63 61 55 52 53 55 56 62 61 60 60 61 60 60 59 59 59 59
60 59 60 60 60 60 61 62 62 62 63 61 60 60 61 61 63 62 62 61 62 63 65 64 64 62 57 53 52 53 58 61 61 59 58 58 59 58 59 58 58 59
60 60 60 60 60 61 62 62 63 62 61 61 60 59 60 60 61 61 60 61 62 62 63 63 64 64 62 52 51 52 54 60 61 59 57 57 58 58 57 57 57 57
MSLP
1014.66 1014.54 1014.50 1014.46 1014.38 1014.22 1014.14 1014.14 1014.06 1014.06 1013.94 1013.74 1013.62 1013.34 1013.22 1012.98 1012.78 1012.70 1012.50 1012.26 1012.10 1012.06 1012.06 1012.14 1012.18 1012.26 1012.22 1012.14 1012.10 1012.14 1012.26 1012.38 1012.42 1012.54 1012.70 1012.86 1013.06 1013.22 1013.34 1013.38 1013.54 1013.46
1014.62 1014.50 1014.38 1014.30 1014.22 1013.98 1013.86 1013.78 1013.78 1013.82 1013.74 1013.62 1013.50 1013.34 1013.10 1012.94 1012.82 1012.70 1012.58 1012.46 1012.34 1012.30 1012.10 1012.02 1011.94 1011.94 1011.98 1011.98 1011.94 1012.02 1012.06 1012.10 1012.18 1011.98 1012.34 1012.50 1012.54 1012.74 1012.94 1012.98 1012.98 1012.98
1014.58 1014.46 1014.34 1014.26 1014.14 1013.90 1013.70 1013.54 1013.50 1013.46 1013.46 1013.26 1013.10 1013.06 1012.94 1012.74 1012.62 1012.46 1012.34 1012.22 1012.18 1012.06 1012.02 1011.86 1011.70 1011.54 1011.58 1011.62 1011.66 1011.70 1011.70 1011.66 1011.66 1011.50 1011.66 1011.86 1011.90 1012.14 1012.18 1012.34 1012.42 1012.50
1014.54 1014.46 1014.34 1014.14 1013.94 1013.86 1013.66 1013.54 1013.38 1013.26 1013.18 1013.10 1013.02 1012.86 1012.74 1012.58 1012.50 1012.42 1012.34 1012.22 1012.14 1012.02 1011.86 1011.74 1011.62 1011.46 1011.38 1011.30 1011.30 1011.30 1011.22 1011.18 1011.06 1011.02 1011.18 1011.22 1011.30 1011.42 1011.58 1011.70 1011.86 1012.06
1014.50 1014.38 1014.26 1014.10 1013.90 1013.70 1013.62 1013.58 1013.42 1013.26 1013.14 1012.98 1012.82 1012.66 1012.58 1012.54 1012.46 1012.38 1012.30 1012.30 1012.22 1012.06 1011.90 1011.78 1011.62 1011.50 1011.26 1011.14 1011.02 1010.94 1010.78 1010.78 1010.66 1010.70 1010.82 1010.86 1010.78 1010.98 1011.02 1011.30 1011.50 1011.66
1014.42 1014.30 1014.14 1014.06 1013.86 1013.74 1013.66 1013.54 1013.34 1013.18 1013.02 1012.82 1012.70 1012.54 1012.46 1012.34 1012.34 1012.30 1012.18 1012.18 1012.06 1011.94 1011.78 1011.54 1011.46 1011.22 1011.02 1010.82 1010.70 1010.58 1010.42 1010.38 1010.22 1010.30 1010.42 1010.42 1010.38 1010.42 1010.58 1010.82 1011.06 1011.22
1014.42 1014.26 1014.10 1013.98 1013.86 1013.70 1013.62 1013.42 1013.26 1013.06 1012.90 1012.74 1012.54 1012.46 1012.30 1012.30 1012.22 1012.10 1012.02 1011.94 1011.82 1011.66 1011.42 1011.14 1010.98 1010.82 1010.62 1010.42 1010.26 1010.10 1009.98 1009.90 1009.82 1009.82 1009.90 1009.82 1009.86 1009.98 1010.10 1010.30 1010.50 1010.54
1014.26 1014.10 1013.98 1013.90 1013.82 1013.66 1013.54 1013.34 1013.14 1012.94 1012.70 1012.58 1012.58 1012.30 1012.18 1012.10 1012.02 1011.86 1011.74 1011.62 1011.50 1011.30 1011.10 1010.82 1010.58 1010.46 1010.22 1010.10 1009.98 1009.70 1009.46 1009.30 1009.26 1009.26 1009.30 1009.30 1009.38 1009.46 1009.50 1009.58 1009.78 1010.02
1014.18 1014.06 1013.94 1013.86 1013.78 1013.58 1013.46 1013.26 1013.02 1012.82 1012.58 1012.50 1012.34 1012.18 1012.02 1011.98 1011.82 1011.62 1011.46 1011.34 1011.22 1010.94 1010.70 1010.46 1010.22 1010.06 1009.90 1009.78 1009.62 1009.34 1009.06 1008.78 1008.62 1008.62 1008.74 1008.82 1008.90 1008.90 1008.94 1009.06 1009.30 1009.42
1014.02 1013.94 1013.90 1013.82 1013.66 1013.50 1013.34 1013.06 1012.86 1012.66 1012.46 1012.34 1012.14 1011.98 1011.90 1011.66 1011.54 1011.42 1011.22 1011.10 1010.98 1010.66 1010.34 1010.10 1009.86 1009.66 1009.50 1009.34 1009.14 1008.90 1008.66 1008.38 1008.14 1008.10 1008.14 1008.18 1008.26 1008.30 1008.38 1008.54 1008.70 1008.94
1013.86 1013.82 1013.78 1013.66 1013.54 1013.34 1013.22 1012.98 1012.78 1012.58 1012.38 1012.22 1012.02 1011.86 1011.66 1011.50 1011.30 1011.06 1011.02 1010.86 1010.70 1010.42 1010.10 1009.74 1009.54 1009.34 1009.18 1008.94 1008.66 1008.34 1008.14 1007.98 1007.82 1007.74 1007.74 1007.78 1007.74 1007.74 1007.74 1007.86 1008.10 1008.26
1013.74 1013.66 1013.58 1013.50 1013.34 1013.22 1013.02 1012.86 1012.70 1012.50 1012.30 1012.06 1011.90 1011.74 1011.50 1011.30 1011.10 1010.90 1010.82 1010.62 1010.38 1010.10 1009.82 1009.50 1009.22 1009.06 1008.90 1008.62 1008.26 1007.94 1007.70 1007.58 1007.46 1007.38 1007.34 1007.38 1007.38 1007.38 1007.34 1007.34 1007.50 1007.62
1013.58 1013.50 1013.42 1013.30 1013.14 1013.02 1012.82 1012.70 1012.54 1012.38 1012.22 1012.02 1011.70 1011.58 1011.42 1011.18 1010.90 1010.74 1010.50 1010.38 1010.10 1009.86 1009.66 1009.34 1009.02 1008.78 1008.50 1008.30 1007.94 1007.62 1007.42 1007.30 1007.18 1007.06 1006.98 1006.94 1006.86 1006.86 1006.86 1006.86 1006.90 1006.98
1013.34 1013.26 1013.18 1013.06 1012.94 1012.78 1012.66 1012.50 1012.34 1012.18 1012.02 1011.82 1011.62 1011.42 1011.26 1011.02 1010.86 1010.66 1010.34 1010.14 1009.86 1009.66 1009.38 1009.14 1008.90 1008.62 1008.38 1008.10 1007.82 1007.58 1007.34 1007.18 1006.98 1006.82 1006.66 1006.58 1006.50 1006.42 1006.34 1006.30 1006.26 1006.26
1013.10 1013.02 1012.94 1012.86 1012.70 1012.58 1012.46 1012.26 1012.10 1011.94 1011.78 1011.62 1011.34 1011.14 1010.98 1010.82 1010.62 1010.46 1010.30 1010.06 1009.74 1009.50 1009.26 1009.06 1008.86 1008.62 1008.42 1008.30 1008.06 1007.70 1007.42 1007.18 1006.90 1006.62 1006.30 1006.10 1005.94 1005.94 1005.90 1005.90 1005.82 1005.70
1012.90 1012.82 1012.70 1012.62 1012.54 1012.38 1012.22 1012.10 1011.94 1011.74 1011.58 1011.38 1011.06 1010.82 1010.78 1010.62 1010.46 1010.30 1010.10 1009.90 1009.66 1009.38 1009.22 1009.02 1008.78 1008.46 1008.26 1008.18 1008.06 1007.78 1007.30 1007.06 1006.74 1006.38 1006.02 1005.66 1005.42 1005.30 1005.30 1005.22 1005.10 1004.98
1012.74 1012.58 1012.54 1012.46 1012.26 1012.22 1012.06 1011.90 1011.74 1011.58 1011.46 1011.22 1010.94 1010.66 1010.62 1010.38 1010.30 1010.18 1009.86 1009.66 1009.50 1009.54 1009.38 1009.02 1008.70 1008.30 1008.02 1007.82 1007.66 1007.46 1007.22 1006.86 1006.46 1005.94 1005.54 1005.22 1004.98 1004.86 1004.78 1004.58 1004.42 1004.22
1012.58 1012.50 1012.46 1012.30 1012.14 1012.02 1011.82 1011.70 1011.58 1011.42 1011.30 1011.14 1010.90 1010.58 1010.38 1010.30 1010.22 1009.94 1009.66 1009.50 1009.38 1009.42 1009.26 1008.94 1008.58 1008.18 1007.90 1007.70 1007.38 1006.86 1006.46 1006.10 1005.78 1005.46 1005.06 1004.70 1004.38 1004.22 1004.02 1003.90 1003.78 1003.58
1012.50 1012.46 1012.34 1012.22 1012.02 1011.86 1011.70 1011.58 1011.46 1011.26 1011.10 1010.94 1010.74 1010.46 1010.26 1010.18 1009.94 1009.78 1009.58 1009.38 1009.38 1009.38 1009.18 1008.82 1008.54 1008.10 1007.86 1007.66 1007.26 1006.74 1006.14 1005.54 1004.98 1004.66 1004.42 1004.06 1003.78 1003.54 1003.30 1003.18 1003.06 1002.90
1012.42 1012.38 1012.26 1012.10 1011.94 1011.82 1011.66 1011.54 1011.38 1011.14 1010.86 1010.70 1010.54 1010.34 1010.26 1010.02 1009.78 1009.66 1009.46 1009.38 1009.30 1009.26 1009.14 1008.78 1008.46 1008.02 1007.78 1007.62 1007.18 1006.66 1006.02 1005.26 1004.46 1003.94 1003.66 1003.34 1003.06 1002.86 1002.78 1002.66 1002.50 1002.38
1012.38 1012.38 1012.26 1012.06 1011.90 1011.74 1011.58 1011.38 1011.22 1010.94 1010.70 1010.50 1010.34 1010.22 1010.02 1009.86 1009.66 1009.50 1009.34 1009.30 1009.18 1009.06 1009.02 1008.78 1008.34 1007.94 1007.78 1007.54 1007.06 1006.50 1005.86 1005.02 1004.18 1003.62 1003.22 1002.90 1002.66 1002.58 1002.50 1002.34 1002.06 1001.70
1012.30 1012.22 1012.06 1011.94 1011.78 1011.62 1011.50 1011.26 1011.02 1010.82 1010.66 1010.34 1010.18 1009.90 1009.70 1009.58 1009.38 1009.34 1009.26 1009.14 1009.02 1008.94 1008.90 1008.70 1008.14 1007.78 1007.66 1007.46 1006.94 1006.34 1005.70 1004.90 1004.22 1003.62 1003.02 1002.74 1002.74 1002.58 1002.30 1001.94 1001.54 1001.06
1012.02 1012.06 1011.94 1011.82 1011.70 1011.62 1011.42 1011.14 1010.90 1010.62 1010.38 1010.26 1010.14 1009.82 1009.58 1009.38 1009.22 1009.06 1008.94 1008.90 1008.82 1008.78 1008.78 1008.54 1008.06 1007.66 1007.50 1007.34 1006.86 1006.26 1005.70 1005.10 1004.46 1004.14 1003.74 1003.38 1003.30 1003.06 1002.70 1002.14 1001.62 1001.06
1011.70 1011.78 1011.82 1011.66 1011.58 1011.50 1011.30 1011.02 1010.74 1010.58 1010.46 1010.18 1010.14 1009.90 1009.54 1009.22 1009.06 1008.86 1008.66 1008.66 1008.62 1008.62 1008.54 1008.46 1008.06 1007.58 1007.46 1007.26 1006.98 1006.42 1006.10 1005.58 1005.14 1005.06 1004.54 1004.10 1003.86 1003.42 1003.14 1002.86 1002.54 1002.10
1011.54 1011.58 1011.58 1011.54 1011.50 1011.34 1011.18 1011.02 1010.74 1010.54 1010.26 1010.06 1009.98 1009.78 1009.54 1009.18 1008.98 1008.82 1008.58 1008.50 1008.46 1008.38 1008.30 1008.26 1007.98 1007.58 1007.38 1007.26 1007.06 1006.74 1006.30 1005.90 1005.62 1005.58 1005.06 1004.86 1004.46 1004.10 1003.62 1003.38 1003.02 1002.90
1011.42 1011.46 1011.34 1011.34 1011.30 1011.10 1010.94 1010.82 1010.62 1010.38 1010.18 1009.98 1009.78 1009.66 1009.42 1009.06 1008.86 1008.74 1008.66 1008.38 1008.30 1008.18 1008.14 1008.06 1007.94 1007.58 1007.30 1007.22 1007.06 1006.82 1006.54 1006.10 1005.82 1005.78 1005.66 1005.38 1005.14 1004.78 1004.34 1003.94 1003.70 1003.74
Wind_Speed
5 4 6 5 5 5 5 5 3 4 5 5 5 5 5 6 5 6 7 7 8 8 7 6 5 6 7 7 7 7 7 9 9 8 10 10 10 13 14 14 14 10
5 4 5 5 5 5 5 4 4 4 5 4 4 5 6 5 5 5 6 7 6 6 6 7 7 7 6 7 7 8 8 8 10 8 10 12 11 12 13 14 13 12
3 4 5 5 6 6 6 5 4 4 5 6 5 4 5 4 6 5 5 6 6 7 7 8 9 8 7 7 8 9 9 10 10 10 10 12 12 12 12 13 11 14
3 4 5 6 5 5 4 5 5 4 3 4 4 4 4 5 4 4 5 6 7 8 8 8 8 8 8 8 9 9 10 10 11 10 10 9 10 11 11 11 12 11
3 4 4 5 6 5 5 5 6 6 5 5 5 5 5 4 5 6 5 5 5 7 8 8 9 9 9 9 9 10 10 10 10 10 10 11 11 11 11 11 11 12
3 3 4 4 5 5 5 4 5 6 6 7 6 4 5 5 4 5 5 6 5 7 8 8 9 9 10 11 10 10 10 10 10 11 12 12 11 10 9 10 11 12
3 3 4 4 5 5 5 5 5 5 5 5 6 6 5 5 5 5 5 6 7 7 8 9 9 10 10 11 11 11 11 12 11 12 13 12 11 12 11 11 12 13
3 3 4 3 4 5 5 5 5 5 5 4 5 6 5 6 6 5 5 6 7 7 8 9 10 10 11 11 12 13 12 10 11 12 12 12 11 12 12 11 12 13
3 4 4 4 4 4 4 5 5 6 5 5 5 6 5 5 6 6 6 6 7 8 8 9 10 10 9 10 11 13 13 12 11 11 11 12 12 13 12 11 11 13
4 4 4 4 5 5 5 5 5 6 5 5 5 5 6 7 6 7 7 7 8 9 9 10 10 10 9 10 11 12 12 12 11 11 11 12 12 12 11 11 12 12
5 4 4 5 5 5 5 5 5 5 5 5 6 6 6 6 7 6 7 7 8 9 10 11 10 10 10 10 10 10 10 10 10 11 10 11 11 11 11 12 12 13
5 4 5 5 6 6 6 5 6 5 6 5 5 6 7 7 7 7 7 8 8 8 9 10 10 10 10 10 10 9 9 9 10 10 10 10 10 10 10 10 12 13
5 5 5 5 6 6 6 5 5 5 5 6 5 5 6 7 7 7 7 7 9 8 9 10 11 11 10 10 9 8 8 8 9 9 10 9 9 10 11 11 12 12
5 4 5 5 5 5 5 5 5 5 5 5 5 5 6 6 8 8 8 7 8 8 8 9 10 10 10 9 9 8 7 8 8 9 9 9 9 10 11 11 13 13
5 5 4 5 5 5 6 6 5 5 5 4 4 3 5 6 7 8 8 8 8 7 8 9 10 8 6 8 9 10 8 8 9 10 11 12 12 11 11 12 13 13
5 5 5 4 5 6 6 6 6 5 5 5 4 4 5 7 8 8 7 7 8 8 7 8 7 6 8 12 11 8 8 8 8 10 11 11 12 12 12 12 14 14
5 6 4 5 5 5 6 6 6 5 5 6 6 4 6 7 7 8 8 7 7 6 9 8 7 7 13 15 16 16 11 10 10 11 10 10 11 12 13 14 13 14
5 4 5 6 5 6 6 6 5 5 6 6 6 7 6 6 8 8 7 7 6 6 7 7 8 10 14 15 17 19 20 11 8 11 12 11 11 12 12 13 14 15
4 4 5 6 6 6 6 5 5 6 6 6 7 6 6 7 8 7 7 6 5 6 7 7 7 10 13 16 18 20 22 19 11 11 12 12 11 12 12 12 12 14
4 4 5 6 6 6 6 6 5 6 6 6 6 6 5 7 7 7 5 4 5 5 7 7 7 10 13 15 16 18 20 20 11 10 11 11 10 10 10 10 12 12
4 4 5 5 5 5 6 6 6 6 6 6 5 6 6 6 6 6 4 3 4 5 6 8 7 11 12 15 16 18 21 18 10 10 9 9 8 7 7 10 11 13
4 4 4 5 5 6 6 6 6 6 6 6 5 6 5 4 5 4 4 3 3 4 5 7 7 11 11 14 17 18 20 12 11 12 9 4 5 6 6 5 6 9
4 4 4 5 5 6 6 6 6 7 6 3 5 7 7 6 5 5 3 3 3 3 4 7 7 9 11 13 16 19 15 11 12 11 8 10 9 9 9 9 7 6
4 3 4 5 5 5 6 6 6 5 5 3 4 6 7 7 5 5 4 3 2 2 4 5 6 8 9 11 14 18 15 10 10 10 11 10 9 10 10 9 13 30
4 4 4 4 5 6 5 6 6 6 6 4 4 4 5 6 5 5 5 3 3 3 5 5 6 7 7 10 12 14 14 8 8 7 11 12 10 9 10 10 13 16
3 3 4 4 4 5 5 5 5 5 5 5 4 3 5 5 5 4 5 6 3 3 3 4 5 6 5 9 11 12 13 8 6 7 9 10 10 9 9 12 12 12
Wind_Direction
306 306 301 306 300 292 291 292 278 270 266 274 270 269 254 254 268 273 271 273 269 264 257 243 234 227 223 220 215 212 213 218 221 200 206 208 213 217 225 227 226 226
301 286 291 298 294 290 284 268 270 260 271 259 248 257 268 269 261 250 251 252 254 256 264 265 258 244 227 218 220 223 228 223 226 212 208 210 215 215 222 227 229 226
287 288 287 284 283 287 289 284 261 254 257 269 269 252 252 252 271 266 256 257 263 265 263 266 267 261 245 232 231 236 235 231 231 223 214 216 220 220 218 221 225 223
287 276 289 296 295 289 289 296 296 289 280 282 274 273 275 283 275 273 277 282 286 282 275 268 265 267 262 249 239 240 238 232 229 224 221 219 217 219 218 214 221 222
298 298 296 298 301 302 308 310 308 307 303 289 294 299 294 288 290 290 282 274 271 278 277 274 274 271 266 258 242 240 238 236 230 224 221 223 218 214 217 213 217 221
290 289 294 299 301 305 305 302 299 302 304 308 300 294 284 283 278 276 283 284 270 267 272 269 263 260 260 259 254 245 242 238 231 223 222 222 221 213 212 208 213 218
281 284 286 289 295 296 294 291 290 291 289 285 297 293 289 283 280 277 273 270 276 276 279 278 275 272 265 261 256 248 242 240 237 229 226 225 221 216 212 210 213 220
279 276 281 288 289 294 294 294 295 293 289 294 285 284 284 286 282 276 273 278 276 273 273 275 273 268 269 264 260 257 250 243 240 234 230 227 218 222 212 209 212 217
273 281 287 292 291 288 288 290 291 292 294 294 296 295 292 280 279 277 278 279 283 282 278 276 274 269 264 260 257 251 249 245 239 233 230 230 227 225 223 214 213 213
286 278 283 287 290 283 283 284 287 290 294 290 286 291 291 286 277 278 279 281 284 286 287 285 283 279 272 263 257 252 249 247 244 241 236 230 226 224 222 219 216 214
294 294 292 291 288 287 282 284 285 287 292 293 296 293 287 282 281 278 280 280 283 287 292 294 293 290 285 278 268 256 250 250 249 248 243 236 230 224 218 216 216 215
291 296 293 290 292 292 287 285 286 285 286 283 278 283 285 279 276 282 284 283 284 287 293 296 298 298 292 283 273 261 254 249 248 246 242 234 234 232 230 225 223 223
287 285 283 285 284 284 284 284 282 284 285 285 286 281 283 288 288 284 280 281 287 293 297 300 301 302 299 291 280 268 260 254 251 245 240 231 225 224 224 224 225 226
281 278 279 275 275 278 281 280 282 281 280 281 283 288 292 293 297 293 289 289 290 295 300 306 306 307 315 323 322 298 283 277 267 259 254 245 238 234 232 231 231 230
286 286 274 272 277 285 284 285 283 283 282 277 272 295 308 309 305 301 293 294 295 299 307 312 312 321 335 336 323 312 299 285 276 268 261 255 250 242 234 236 239 237
286 286 281 276 278 281 284 287 289 291 292 291 306 321 311 307 307 298 292 289 300 309 313 311 311 313 320 320 315 306 293 277 259 255 258 256 252 248 244 241 240 239
287 285 286 280 273 278 284 285 288 294 292 292 294 302 305 303 298 294 296 299 300 319 312 306 305 310 317 324 323 316 303 286 285 268 252 248 246 245 249 247 244 242
277 287 289 281 283 279 280 280 285 293 292 287 289 296 288 286 286 287 292 297 305 312 300 301 302 304 312 324 325 324 320 302 275 273 258 245 241 242 243 246 248 248
277 283 284 284 281 282 285 288 289 292 294 292 288 283 286 284 283 287 290 300 303 305 303 303 299 301 317 328 328 324 323 318 296 278 259 246 241 240 241 244 247 252
277 278 279 279 286 292 292 291 289 286 286 283 282 288 278 277 281 279 284 299 297 303 298 290 294 300 320 329 325 322 324 322 299 286 262 256 253 246 246 251 250 253
276 274 276 285 293 296 297 292 287 288 292 292 289 287 289 287 285 291 292 296 297 301 294 291 295 305 322 329 327 327 330 323 311 309 290 269 252 257 264 259 255 253
269 279 288 298 301 303 300 294 294 289 289 296 297 297 288 278 279 262 264 263 274 291 293 298 300 312 331 334 331 333 334 333 334 336 323 339 339 322 295 270 275 258
276 277 293 300 303 302 297 294 295 301 300 287 299 301 306 310 294 276 253 253 273 287 292 298 303 314 334 338 334 339 347 344 357 350 355 16 17 9 359 349 339 343
280 290 297 300 303 294 290 292 291 284 277 280 286 297 308 310 301 288 261 224 241 267 274 290 299 302 328 340 338 341 352 346 9 358 2 9 9 26 25 9 22 23
279 298 295 293 295 289 286 293 295 290 293 291 273 274 285 298 303 290 290 264 230 239 272 282 291 300 327 337 341 341 353 350 15 3 25 9 9 14 31 32 34 30
281 291 293 293 290 291 292 283 281 296 300 302 299 274 297 316 315 307 295 291 271 257 268 274 290 304 318 334 341 341 349 1 22 30 30 27 13 14 24 32 35 39